This demonstration page uses our WeatherBlox Daily Observations layout. Learn more.

Left ArrowRight Arrow

Hourly Observations for December 24, 2015

Temp ( °F °C ) Dew Point ( °F °C ) Humidity (%) Winds ( mph kmh ) Pressure ( in mb ) Visibility ( mi km ) Precip ( " mm )
12:53 am 00:53 Partly Cloudy 58 14.4 54 12.2 87 87 SSW 3 6 29.60 1002 10 16 N/A
1:53 am 01:53 Clear 57 13.9 54 12.2 90 90 SW 5 7 29.64 1004 10 16 N/A
2:53 am 02:53 Clear 58 14.4 54 12.2 87 87 WSW 7 11 29.67 1005 10 16 N/A
3:53 am 03:53 Clear 56 13.3 53 11.7 90 90 W 8 13 29.71 1006 10 16 N/A
4:29 am 04:29 Mostly Cloudy 55 12.8 52 11.1 90 90 WSW 6 9 29.74 1007 10 16 N/A
4:53 am 04:53 Cloudy 56 13.3 52 11.1 87 87 WSW 10 17 29.78 1008 10 16 N/A
5:16 am 05:16 Partly Cloudy 54 12.2 48 8.9 80 80 W 13 20 29.80 1009 10 16 N/A
5:53 am 05:53 Clear 50 10 43 6.1 77 77 W 8 13 29.86 1011 10 16 N/A
6:53 am 06:53 Clear 47 8.3 41 5 80 80 W 5 7 29.93 1014 10 16 N/A
7:53 am 07:53 Mostly Clear 43 6.1 40 4.4 89 89 WNW 6 9 29.98 1015 10 16 N/A
8:53 am 08:53 Sunny 45 7.2 40 4.4 83 83 WSW 3 6 30.03 1017 10 16 N/A
9:53 am 09:53 Sunny 48 8.9 38 3.3 68 68 N N/A 30.05 1018 10 16 N/A
10:53 am 10:53 Sunny 51 10.6 41 5 69 69 VRB 3 6 30.07 1018 10 16 N/A
11:53 am 11:53 Sunny 53 11.7 37 2.8 55 55 N N/A 30.06 1018 10 16 N/A
12:53 pm 12:53 Sunny 55 12.8 38 3.3 53 53 NNW 5 7 30.04 1017 10 16 N/A
1:53 pm 13:53 Sunny 57 13.9 37 2.8 47 47 WNW 3 6 30.04 1017 10 16 N/A
2:53 pm 14:53 Sunny 58 14.4 38 3.3 48 48 NW 5 7 30.04 1017 10 16 N/A
3:53 pm 15:53 Sunny 58 14.4 39 3.9 50 50 ESE 3 6 30.04 1017 10 16 N/A
4:53 pm 16:53 Sunny 56 13.3 40 4.4 55 55 N N/A 30.04 1017 10 16 N/A
5:53 pm 17:53 Clear 47 8.3 41 5 80 80 E 3 6 30.06 1018 10 16 N/A
6:53 pm 18:53 Clear 44 6.7 40 4.4 85 85 E 3 6 30.06 1018 10 16 N/A
7:53 pm 19:53 Clear 42 5.6 39 3.9 89 89 N N/A 30.06 1018 10 16 N/A
8:53 pm 20:53 Partly Cloudy 44 6.7 39 3.9 83 83 E 3 6 30.06 1018 10 16 N/A
9:53 pm 21:53 Mostly Clear 50 10 42 5.6 74 74 E 3 6 30.07 1018 10 16 N/A
10:53 pm 22:53 Mostly Cloudy 51 10.6 45 7.2 80 80 E 5 7 30.06 1018 10 16 N/A
11:53 pm 23:53 Mostly Clear 52 11.1 47 8.3 83 83 E 5 7 30.07 1018 10 16 N/A

Powered by AerisWeather